Погода в Азине

Россия / Удмуртская Республика     56°58′21″N   52°42′36″E
темп.,
°C
ветер,
м/с
пор.,
м/с
влажн.,
%
обл.,
%
осадки,
мм/ч
давл.,
гПа
погр.,
м
19 сентября, вс
вс1901:00+1сз41187100 0.0 1019502
04:000сз4109235 0.0 1020454
07:000сз31093100 0.0 1021458
10:00+5ссз476382 0.0 10211138
13:00+7ссз465182 0.0 10221517
16:00+7сз475281 0.0 10221615
19:00+3ссз396879 0.0 1024415
22:00+1сз267996 0.0 1025138
20 сентября, пн
пн2001:00+3сз256293 0.0 1025216
04:00+1сз257488 0.0 1027138
07:00+2ссз146586 0.0 1027144
10:00+6ссв235674 0.0 10281072
13:00+9с234772 0.0 10281341
16:00+9св334960 0.0 10281398
19:00+4всв3874100 0.0 1029215
22:00+2всв2884100 0.0 1030227
21 сентября, вт
вт2101:00+2в2585100 0.0 1030128
04:00+1в2591100 0.0 1030107
07:00+1в2590100 0.0 1030144
10:00+6в4662100 0.0 1029864
13:00+8вюв3453100 0.0 10271052
16:00+9вюв3453100 0.0 1026998
19:00+5в2271100 0.0 102618
22:00+3всв238097 0.0 102552
22 сентября, ср
ср2201:00+3всв268587 0.0 1025121
04:00+1в27925 0.0 1025134
07:00+1всв399084 0.0 1025216
10:00+8в4759100 0.0 1024505
13:00+11вюв4650100 0.0 1023803
16:00+12в475267 0.0 1022863
19:00+8в397298 0.0 1024221
22:00+8в3106597 0.0 1024339
23 сентября, чт
чт2301:00+6вюв387586 0.0 1024179
04:00+6вюв387514 0.0 1025199
07:00+6в2874100 0.0 1025217
10:00+10вюв4960100 0.0 1026395
13:00+10вюв4116189 0.0 1026463
16:00+11юв41162100 0.0 1025484
19:00+10юв276593 0.0 1026230
22:00+9вюв2567100 0.0 1026111